Regional Weather Roundup
Issued by NWS Cleveland, OH

Home | Current Version | Previous Version | Graphics & Text | Print | Product List | Glossary On
Versions: 1 2 3 4 5 6 7 8 9 10 11 12 13 14 15 16 17 18 19 20 21 22 23 24 25 26 27 28 29 30 31 32 33 34 35 36 37 38 39 40 41 42 43 44 45 46 47 48 49 50
000
ASUS41 KCLE 251110
RWRCLE
OHIO REGIONAL WEATHER ROUNDUP
NATIONAL WEATHER SERVICE CLEVELAND, OH
700 AM EDT WED APR 25 2018

NOTE: "FAIR" INDICATES FEW OR NO CLOUDS BELOW 12,000 FEET WITH NO
SIGNIFICANT WEATHER AND/OR OBSTRUCTIONS TO VISIBILITY.

OHZ001>008-015>018-024>027-034-035-043-044-251200-
   NORTHWEST OHIO

CITY           SKY/WX    TMP DP  RH WIND       PRES   REMARKS
DEFIANCE       CLOUDY    51  50  96 NW7       29.92R
FINDLAY        CLOUDY    50  47  89 N8        29.89R FOG
TOLEDO EXPRESS CLOUDY    51  51 100 N8        29.90R FOG
TOLEDO EXEC    FOG       49  48  97 CALM      29.90S VSB 1/2
LIMA           LGT RAIN  50  50 100 N7        29.90R FOG
$$

OHZ009>014-019>023-028>033-038-089-251200-
   NORTHEAST OHIO

CITY           SKY/WX    TMP DP  RH WIND       PRES   REMARKS
CLE-HOPKINS    LGT RAIN  51  50  96 N5        29.88S VSB 1
CLE-LAKEFRONT  LGT RAIN  45  43  93 NE6       29.86S VSB 1
CUY CO. ARPT   DRIZZLE   52  50  93 CALM      29.87  FOG
LORAIN-ELYRIA  CLOUDY    49  45  86 N5        29.87S FOG
ASHTABULA      CLOUDY    50  50 100 CALM      29.87S
AKRON-CANTON   CLOUDY    51  48  89 NE5       29.85S FOG
WOOSTER        FOG       50  50 100 N5        29.86R VSB 3/4
MANSFIELD      FOG       50  50 100 NW8       29.86R VSB 1/2
YOUNGSTOWN     CLOUDY    50  48  93 E7        29.85S
$$

OHZ042-051>053-060>062-070>072-077>081-251200-
  SOUTHWEST OHIO

CITY           SKY/WX    TMP DP  RH WIND       PRES   REMARKS
CINC-COVINGTON CLOUDY    53  50  89 NW9       29.90R
CINC-LUNKEN    CLOUDY    54  52  93 N8        29.91R
HAMILTON       CLOUDY    53  50  89 N10G16    29.92R
DAYTON         FOG       50  50 100 NW12      29.91R VSB 1/2
WRIGHT-PAT AFB CLOUDY    51  49  95 NW9       29.89R FOG
DAYTON GENERAL CLOUDY    52  49  89 N9        29.89R FOG
WILMINGTON     CLOUDY    54  52  93 N12       29.87R
$$

OHZ036-037-039>041-045>050-054>059-063>069-073>076-082>088-251200-
  CENTRAL AND SOUTHEAST OHIO

CITY           SKY/WX    TMP DP  RH WIND       PRES   REMARKS
COLUMBUS       CLOUDY    53  51  93 N5        29.85S FOG
OSU AIRPORT    CLOUDY    52  51  97 N7        29.86R
BOLTON FIELD   CLOUDY    52  52 100 N6        29.87R FOG
RICKENBACK AFB CLOUDY    52  52 100 NW3       29.86R FOG
NEWARK         CLOUDY    52  51  97 NW3       29.85R
MARION         FOG       50  49  96 N9        29.88R VSB 3/4
LANCASTER      CLOUDY    52  52 100 NW3       29.86R
ZANESVILLE     CLOUDY    51  49  92 NW3       29.84S FOG
NEW PHILLY     NOT AVBL
$$



USA.gov is the U.S. government's official web portal to all federal, state and local government web resources and services.